Location: Cheching
(60.0667°N, 164.2167°W)
Time: 12:56:41
(UTC+00:00)

BUGSAT 1 - Visible Passes

Search period start: 16 January 2021 00:00
Search period end: 26 January 2021 00:00
Orbit: 559 x 601 km, 98.1° (Epoch: 16 January)

Date Brightness Start Highest point End Pass type
(mag) Time Alt. Az. Time Alt. Az. Time Alt. Az.
16 Jan ? 15:29:48 10° NNE 15:30:49 17° NNE 15:30:49 17° NNE visible
16 Jan ? 17:05:42 10° N 17:07:10 16° NNW 17:07:10 16° NNW visible
17 Jan ? 15:34:51 10° NNE 15:36:01 18° NNE 15:36:01 18° NNE visible
17 Jan ? 17:10:49 10° N 17:12:22 16° NNW 17:12:22 16° NNW visible
18 Jan ? 15:39:54 10° NNE 15:41:13 20° NNE 15:41:13 20° NNE visible
18 Jan ? 17:15:56 10° N 17:17:34 16° NNW 17:17:34 16° NNW visible
19 Jan ? 14:10:04 10° NE 14:10:05 10° NE 14:10:05 10° NE visible
19 Jan ? 15:44:57 10° NNE 15:46:25 21° N 15:46:25 21° N visible
19 Jan ? 17:21:03 10° N 17:22:46 16° NNW 17:22:46 16° NNW visible
20 Jan ? 14:15:03 10° NE 14:15:17 11° NE 14:15:17 11° NE visible
20 Jan ? 15:50:02 10° NNE 15:51:38 22° N 15:51:38 22° N visible
20 Jan ? 17:26:11 10° N 17:27:59 16° NNW 17:27:59 16° NNW visible
21 Jan ? 14:20:01 10° NE 14:20:29 12° NE 14:20:29 12° NE visible
21 Jan ? 15:55:05 10° NNE 15:56:50 24° N 15:56:50 24° N visible
21 Jan ? 17:31:19 10° N 17:33:11 15° NW 17:33:11 15° NW visible
22 Jan ? 14:25:01 10° NNE 14:25:41 14° NE 14:25:41 14° NE visible
22 Jan ? 16:00:09 10° N 16:02:02 25° N 16:02:02 25° N visible
22 Jan ? 17:36:28 10° N 17:38:23 14° NW 17:38:23 14° NW visible
23 Jan ? 14:30:01 10° NNE 14:30:53 15° NE 14:30:53 15° NE visible
23 Jan ? 16:05:12 10° N 16:07:14 26° N 16:07:14 26° N visible
23 Jan ? 17:41:37 10° NNW 17:43:35 14° NW 17:43:35 14° NW visible
24 Jan ? 14:35:01 10° NNE 14:36:06 16° NE 14:36:06 16° NE visible
24 Jan ? 16:10:16 10° N 16:12:26 27° N 16:12:26 27° N visible
24 Jan ? 17:46:47 10° NNW 17:48:45 13° NW 17:48:47 13° NW visible
25 Jan ? 14:40:01 10° NNE 14:41:18 18° NE 14:41:18 18° NE visible
25 Jan ? 16:15:20 10° N 16:17:38 28° N 16:17:38 28° N visible
25 Jan ? 17:51:58 10° NNW 17:53:43 12° NW 17:54:00 12° NW visible
